Location: Riverside
(39.1734°N, 77.8561°W)
Time: 18:58:32
(UTC+00:00)

OTV 5 (USA 277) - Pass Details

Date: 16 October 2019
Orbit: 310 x 324 km, 54.5° (Epoch: 17 October)

Event Time Altitude Azimuth Distance (km) Brightness Sun altitude
Exits shadow 10:10:49 - 344° (NNW) 1,574 ? -14.5°
Reaches altitude 10° 10:12:32 10° 13° (NNE) 1,239 ? -14.2°
Maximum altitude 10:13:10 11° 26° (NNE) 1,207 ? -14.1°
Drops below altitude 10° 10:13:49 10° 40° (NE) 1,236 ? -13.9°
Sets 10:17:06 0° 83° (E) 2,061 ? -13.3°
